Voltar ao catálogo

SL-14 DEB

AtivoPO
NORAD 69735·DEBRIS·🇨🇳 China

Lançado Jan 17, 1986 de Plesetsk Cosmodrome

Loading…

Próximas Passagens (próximas 24 horas)

TLE

AtualizadoSource: Space-Track

Época: Sep 14, 2026, 11:47 UTC

1 69735U 86006D   26257.49127467  .00009737  00000-0  87246-3 0  9998
2 69735  82.5419  85.5084 0088710  25.0996 335.4495 14.92655265 68884

Acompanhe SL-14 DEB em tempo real com AllMySat

Download on the App Store